Theta_e
313 313 313 312 312 312 312 311 311 311 311 311 311 311 311 311 311 311 311 311 311 312 312 312 312 312 312 312 312 312 312 312 312 312 313 313 313 313 313 312 313 313 312 312 312 311 311 311 311 311 311 311 311 311 311 311 310 310 310 310 310 310 310 308 307 307 308 308 307 307 307 307 308 308 309 310 310 311 311 311 310 309 307 307 306
312 312 311 311 311 310 310 310 310 309 309 309 309 309 309 308 309 309 309 309 309 309 310 310 310 310 311 311 311 311 311 311 311 312 312 312 312 312 312 312 312 312 312 312 312 312 311 311 311 311 310 310 310 310 310 310 310 310 310 309 310 310 308 307 307 307 308 308 307 307 307 307 308 308 309 309 310 309 309 309 308 307 306 305 305
311 311 310 310 310 309 309 308 308 307 307 307 307 307 306 306 306 306 306 306 306 306 306 307 307 308 308 309 309 310 310 311 311 311 311 311 311 311 312 312 312 312 312 312 312 312 312 312 312 311 310 310 310 310 310 310 310 310 310 309 308 309 308 307 307 308 308 308 307 307 306 305 307 308 309 308 308 308 308 308 307 306 305 304 304
310 310 310 309 308 308 307 307 306 306 306 306 305 305 305 304 304 304 304 304 304 304 304 304 304 304 305 305 306 307 308 308 309 310 310 311 311 311 311 311 311 311 311 312 312 312 312 311 312 311 310 310 310 310 310 310 310 310 309 308 308 308 307 307 306 307 308 307 306 305 304 304 305 307 308 307 307 307 306 306 305 304 304 303 302
309 309 308 308 307 306 306 306 305 305 305 304 304 304 303 303 303 303 302 302 302 302 302 302 302 302 302 303 303 303 304 305 305 306 307 307 308 309 309 310 310 311 311 311 311 311 311 311 311 311 310 310 310 310 310 310 310 309 309 308 307 307 307 306 306 306 306 305 304 304 303 304 306 307 307 306 306 305 305 304 303 303 302 301 301
308 308 307 306 306 305 305 305 305 305 304 304 303 303 302 302 302 302 301 301 301 301 301 301 301 301 301 301 302 302 302 302 303 303 303 304 304 305 306 306 307 308 309 309 310 310 310 310 310 310 310 309 310 309 309 309 309 308 308 307 306 306 306 306 306 306 305 304 303 304 304 305 306 306 305 305 305 304 303 303 302 301 301 300 299
307 306 306 306 305 305 305 304 304 304 303 303 302 302 302 301 301 301 301 301 301 300 300 300 300 300 300 300 300 300 301 301 301 301 301 302 302 302 303 303 304 304 305 306 307 308 309 309 310 310 309 309 309 309 309 308 308 307 306 306 306 306 305 305 306 306 305 303 303 304 305 305 305 305 304 304 302 301 301 301 301 300 300 298 295
305 305 305 304 304 303 303 303 303 302 302 302 302 301 301 301 301 301 300 300 300 300 300 300 299 299 299 299 299 299 299 300 300 300 300 301 301 301 301 302 302 303 303 303 304 305 306 307 308 309 309 309 309 308 308 307 307 306 306 305 305 305 305 305 306 305 304 303 303 304 304 304 304 304 303 302 301 301 301 300 299 299 298 295 292
304 303 303 303 302 302 302 302 301 301 301 301 301 301 301 300 300 300 300 300 299 299 299 299 299 299 299 299 299 299 299 299 299 299 300 300 300 300 301 301 301 302 302 302 303 303 304 305 306 307 308 308 308 308 307 306 306 305 305 305 305 305 305 305 305 304 304 303 303 303 303 303 303 303 302 302 302 301 301 299 298 296 296 293 290
302 302 302 301 301 301 301 301 301 301 301 300 300 300 300 300 299 299 299 299 299 299 299 299 299 299 299 299 298 299 299 299 299 299 299 299 300 300 300 300 300 301 301 301 302 303 303 304 304 305 306 307 308 308 307 306 305 305 305 305 305 305 305 305 305 304 303 303 302 302 302 302 302 302 302 302 302 301 300 298 296 294 293 291 289
301 301 301 301 301 300 300 300 300 300 300 300 299 299 299 299 299 299 299 298 298 298 298 298 298 298 298 298 298 298 298 298 298 298 299 299 299 299 300 300 300 300 300 301 301 302 303 303 304 304 305 305 306 307 306 305 304 304 304 304 304 305 305 304 304 303 302 302 302 302 301 301 301 302 302 301 301 300 299 297 295 293 292 291 289
301 300 300 300 300 300 300 300 299 299 299 299 298 298 298 298 298 298 298 297 297 297 297 297 297 297 297 297 297 297 297 297 297 297 297 297 298 298 299 299 299 299 300 300 300 301 302 303 303 303 304 304 305 305 305 305 304 303 303 303 304 304 304 304 303 302 301 301 301 301 301 300 300 300 301 301 300 299 297 295 294 293 293 292 290
300 300 300 299 299 299 299 299 298 298 298 298 298 298 297 297 297 297 297 297 297 297 297 297 296 296 296 296 296 296 296 296 296 296 296 296 296 296 297 298 298 299 299 299 299 300 302 302 303 303 303 303 304 304 303 303 302 302 302 303 303 303 303 303 303 301 301 300 300 301 301 300 300 300 301 301 300 299 297 294 293 292 292 292 291
299 299 298 298 298 298 298 298 297 297 297 297 297 297 297 297 297 296 296 296 296 296 296 296 296 296 296 296 296 296 296 295 295 295 295 295 295 295 295 296 297 297 298 299 299 299 301 302 302 303 303 303 302 302 301 301 301 301 302 302 302 302 302 303 302 301 300 300 300 301 301 301 300 300 300 300 299 299 298 296 294 292 291 291 290
298 298 298 297 297 297 297 297 297 297 297 297 297 296 296 296 296 296 296 296 296 296 296 296 296 295 295 295 295 295 295 295 294 294 294 294 294 294 294 295 295 296 297 298 299 299 300 301 302 302 302 302 302 300 299 299 299 300 301 302 302 302 302 301 300 299 299 299 300 300 301 301 300 299 298 298 297 297 296 296 294 291 289 288 288
298 297 297 297 297 297 297 297 297 297 296 296 296 296 295 295 295 295 295 295 295 295 295 295 295 295 295 295 294 295 295 294 294 294 294 294 294 294 294 294 294 295 295 297 298 299 299 300 301 301 302 301 301 299 298 298 299 299 300 301 301 301 300 299 299 299 299 299 300 300 300 299 298 297 297 296 296 294 293 292 290 289 288 287 287
297 298 297 297 297 297 297 296 296 296 295 295 295 295 295 295 295 295 295 295 295 295 295 295 295 295 295 294 294 294 294 294 293 293 293 294 295 295 295 295 294 295 295 296 297 298 299 300 300 300 300 300 299 298 297 298 299 299 299 300 300 300 299 298 298 299 299 300 300 299 299 298 297 296 296 295 295 294 292 290 289 288 288 287 286
297 297 297 297 296 296 296 295 295 295 295 294 294 294 294 294 294 294 294 294 294 294 294 294 294 294 294 294 294 294 294 294 293 292 293 295 296 296 296 296 295 295 296 296 297 298 299 299 299 299 298 298 297 296 296 297 298 298 298 299 299 299 299 298 298 298 299 299 298 298 297 297 296 295 295 294 294 293 292 291 290 289 288 288 287
297 296 296 296 295 295 294 294 294 294 293 293 293 293 293 293 293 293 293 293 293 293 293 293 294 294 293 293 293 293 293 293 293 292 292 295 297 298 297 297 296 296 297 298 298 299 299 299 299 298 297 296 296 296 296 296 297 297 297 297 297 298 298 298 297 297 297 297 297 297 296 296 295 294 294 294 293 292 292 292 291 290 289 288 288
296 295 295 294 294 293 293 293 293 292 292 292 292 292 292 292 292 292 292 292 292 292 292 292 293 293 293 293 293 293 293 293 293 292 292 295 297 298 298 298 297 297 298 298 298 299 299 299 298 297 296 296 295 295 295 296 296 296 296 296 296 297 297 296 295 295 295 294 295 295 295 294 293 293 293 292 292 291 290 290 291 291 290 290 289
294 294 293 293 292 292 292 292 292 292 292 291 292 292 291 291 291 291 291 291 291 291 292 292 292 292 292 292 292 292 292 292 292 291 292 295 297 298 298 298 298 298 298 298 298 298 298 298 297 296 295 295 295 295 295 295 295 295 295 295 296 296 295 294 294 293 293 292 293 293 292 292 292 291 291 290 289 289 289 289 289 290 290 291 290
293 292 292 292 292 291 291 291 291 291 291 291 291 291 291 291 291 291 290 290 290 290 291 291 291 291 291 291 291 291 292 292 291 291 293 295 297 298 298 298 297 297 297 297 297 297 297 296 296 295 295 294 294 294 295 295 295 295 295 295 295 294 293 293 292 291 291 291 291 291 291 291 291 290 289 289 288 288 288 288 289 289 290 290 290
292 291 291 291 291 291 291 291 291 291 290 290 291 291 291 291 291 291 290 290 290 290 290 290 290 290 290 290 290 291 291 291 292 292 293 295 296 297 298 298 297 296 295 296 296 296 296 295 295 294 294 294 294 294 294 294 294 294 294 294 293 292 292 291 291 290 290 290 290 290 290 290 290 289 289 288 288 288 288 288 289 289 289 289 289
291 291 291 291 290 290 290 290 290 290 290 290 290 290 290 290 290 290 290 290 290 290 290 290 290 290 290 290 290 290 290 291 291 292 294 295 296 297 297 297 296 295 295 295 295 295 295 295 294 294 294 294 294 293 293 293 293 293 293 292 291 290 290 290 290 289 289 289 289 289 289 289 289 289 288 288 288 288 288 288 289 289 289 288 288
290 290 290 290 290 290 290 290 290 290 290 290 290 290 290 290 290 290 290 290 290 290 290 290 290 290 290 290 290 290 290 290 291 292 294 295 296 296 296 296 296 295 295 294 295 294 295 295 294 294 294 293 293 292 292 292 292 292 292 291 290 290 290 289 289 289 289 289 289 289 289 289 289 289 288 288 288 288 288 288 288 288 288 288 288
290 290 290 290 290 290 290 290 290 290 289 289 289 289 289 289 289 289 289 289 290 290 290 291 291 290 290 290 290 290 290 290 291 292 294 295 295 295 295 295 295 295 295 295 294 294 294 294 294 293 293 293 291 291 291 291 291 291 291 290 289 289 289 289 289 289 289 289 289 289 289 289 288 288 288 288 288 288 288 288 288 288 288 287 287
290 290 290 290 290 289 289 289 289 289 289 289 289 289 289 289 289 289 289 289 289 289 290 291 291 291 291 290 290 290 290 291 291 292 293 294 294 294 294 294 294 294 294 294 294 294 294 293 293 292 292 291 291 290 290 290 290 290 290 289 289 289 289 289 289 289 289 289 289 289 289 288 288 287 287 288 288 288 288 289 288 288 287 286 285
289 289 289 289 289 289 289 289 289 289 289 289 289 289 289 289 289 289 289 289 289 289 289 290 290 291 290 290 290 290 291 291 291 292 293 293 293 292 293 293 293 293 292 292 292 292 292 292 292 291 290 290 290 290 289 289 289 289 289 288 289 289 288 288 288 288 289 289 289 289 288 288 288 287 287 288 289 288 288 288 288 287 286 285 284
289 289 289 289 289 289 289 289 288 288 288 288 288 288 288 288 288 288 288 288 289 289 289 289 290 290 289 290 290 290 290 291 291 291 292 292 292 292 292 292 291 291 291 290 290 289 290 290 290 289 289 289 289 289 288 288 288 288 288 288 288 288 288 288 288 288 288 289 289 289 288 288 288 288 288 289 289 288 287 287 286 285 284 283 282
289 289 289 288 288 288 288 288 288 288 288 288 288 288 288 288 288 288 288 288 288 288 288 288 289 289 289 289 290 290 290 290 290 291 291 291 291 291 291 291 290 290 290 289 288 287 288 288 288 288 287 287 287 287 287 287 287 287 288 288 288 288 288 288 288 288 288 289 289 289 289 289 289 289 289 288 288 287 286 285 285 284 283 282 281
288 288 288 288 288 288 288 287 287 287 287 287 287 287 287 288 288 287 287 287 288 288 288 288 288 288 288 289 289 289 289 289 289 290 291 291 291 291 291 290 289 289 288 288 287 287 287 287 287 287 286 287 287 286 287 287 287 287 288 288 288 288 288 288 288 288 288 289 289 290 290 290 289 289 288 288 287 286 285 284 284 283 282 281 281
288 288 288 288 287 287 287 287 287 287 287 287 287 287 287 287 287 287 287 287 287 287 288 288 288 288 288 288 288 288 288 289 289 289 290 290 291 291 290 289 288 288 287 287 286 286 286 286 286 286 286 286 286 286 286 286 287 287 288 288 288 288 288 288 288 288 289 289 289 290 289 289 289 289 288 287 286 285 285 284 283 282 281 280 279
287 287 287 287 287 287 287 287 287 287 286 286 286 286 286 286 286 287 287 287 287 287 287 287 287 287 288 287 287 287 288 288 289 289 290 290 290 290 289 288 288 287 287 286 286 286 286 285 286 286 285 285 286 286 286 286 287 287 288 288 288 288 287 287 287 288 289 289 289 289 288 288 288 288 287 286 285 285 284 283 282 281 280 279 279
287 287 287 287 287 287 286 286 286 286 286 286 286 286 285 285 285 285 286 287 287 287 287 287 287 287 287 287 287 286 287 288 289 290 290 290 289 288 288 288 287 286 286 286 286 286 286 285 285 285 285 285 285 286 286 286 287 287 287 288 288 288 287 287 288 289 289 289 288 288 288 288 287 287 287 286 285 284 283 282 281 280 280 279 279
287 287 287 286 286 286 286 286 285 285 285 285 285 285 285 285 285 284 284 285 285 286 287 287 286 285 285 286 286 287 287 288 288 289 289 289 288 287 287 287 286 286 286 286 286 285 285 285 285 285 285 285 285 286 286 287 287 287 287 287 288 288 287 287 288 289 288 288 287 287 287 287 287 286 286 285 284 283 282 281 280 279 279 279 279
287 286 286 286 285 285 285 285 285 284 284 284 284 284 284 284 283 283 283 283 283 283 284 285 285 285 284 285 286 287 287 287 287 287 288 288 288 286 286 286 286 286 286 286 285 285 285 285 285 285 285 285 285 286 286 287 287 287 287 287 287 287 288 288 288 288 287 287 287 287 287 287 286 286 285 284 283 283 281 280 280 279 279 279 279
286 286 285 285 285 285 285 284 284 283 283 283 283 283 283 282 282 282 282 282 282 282 282 283 283 283 284 285 286 286 287 287 286 286 287 287 287 286 286 286 286 286 286 286 285 285 285 285 285 285 285 285 285 286 286 287 287 287 287 287 287 287 288 288 288 287 287 287 287 286 286 286 286 286 285 284 283 282 280 280 279 279 279 278 278
285 285 284 284 284 284 284 284 283 283 282 282 282 281 281 281 281 281 281 281 281 281 281 282 282 282 283 285 285 285 285 285 285 285 286 286 286 286 286 286 286 286 286 285 285 285 285 285 285 285 285 285 285 286 286 287 287 287 287 287 287 288 288 288 287 287 287 286 286 286 286 286 286 285 284 283 282 281 280 279 279 279 279 278 278
285 284 284 284 284 283 283 283 282 282 281 281 280 280 280 280 280 279 279 279 279 280 280 281 282 282 282 283 283 283 282 282 283 283 284 285 285 285 286 286 286 286 285 285 285 285 285 285 285 285 285 285 285 286 286 287 287 287 287 287 288 288 288 287 287 287 286 286 286 286 286 285 285 285 284 282 281 280 279 279 279 278 278 278 277
284 284 283 283 283 282 282 281 281 280 280 279 279 279 278 278 278 278 278 278 279 279 279 279 280 281 282 281 281 281 280 281 281 282 283 284 284 285 285 286 286 285 285 285 285 285 285 285 285 285 285 285 285 286 286 286 287 287 287 287 288 287 287 287 286 286 286 286 286 286 285 285 285 284 283 281 280 279 278 278 278 277 277 277 277
283 283 282 282 281 281 280 280 279 279 278 278 278 277 277 277 277 277 277 277 277 277 277 278 279 280 281 280 280 279 279 280 281 281 282 283 284 284 285 285 285 285 285 285 285 285 285 284 284 285 285 285 285 285 286 286 286 287 287 287 287 287 286 286 286 286 285 285 285 285 285 284 284 283 282 280 279 278 278 278 277 277 277 277 276
282 282 281 280 280 279 279 278 278 277 277 277 277 276 276 276 276 276 275 275 275 275 275 277 278 279 279 279 279 279 279 280 281 281 282 283 283 284 284 285 285 285 284 285 285 285 284 284 284 285 285 285 285 285 285 285 286 286 286 286 286 286 286 286 286 286 285 285 285 285 284 284 283 281 280 279 278 278 278 278 277 277 276 276 276
281 280 279 279 278 278 277 277 277 277 276 276 276 275 275 275 275 274 273 273 273 273 273 274 276 277 277 278 278 278 279 280 281 281 282 283 283 283 284 285 285 285 285 285 284 284 285 285 285 285 285 285 285 285 285 285 285 286 286 286 286 286 286 286 286 286 285 285 284 284 283 282 281 280 279 278 278 278 277 277 277 276 276 276 275
279 278 278 278 277 277 277 276 276 276 275 275 275 275 274 274 274 273 272 272 272 271 272 273 274 275 276 277 278 278 279 280 281 281 282 282 283 283 284 284 285 285 285 285 284 284 284 285 285 285 285 285 285 285 285 285 285 285 285 285 285 286 286 286 285 285 285 284 284 283 282 281 280 279 279 278 278 277 277 277 276 276 275 275 275
278 277 277 277 276 276 276 275 275 275 275 274 274 274 274 273 273 273 272 271 271 271 271 272 274 275 276 277 277 278 279 280 280 280 281 282 282 283 283 284 284 284 284 284 284 284 284 284 284 284 284 284 285 285 285 285 285 285 285 285 285 285 285 284 284 284 283 283 283 282 282 281 280 279 278 277 277 277 276 276 276 275 275 275 274
277 276 276 276 276 275 275 275 274 274 274 274 274 274 273 273 273 272 272 271 271 271 271 273 274 275 276 276 277 278 279 279 280 280 280 281 282 282 283 284 284 284 284 284 284 284 284 284 284 284 284 284 284 285 285 285 285 285 285 285 285 284 284 284 283 283 283 282 281 281 280 279 278 278 277 277 276 276 276 275 275 275 274 274 274
276 276 275 275 275 275 274 274 274 273 273 273 273 273 273 272 272 271 271 271 271 271 272 273 274 274 275 276 277 277 278 279 279 280 280 281 281 282 282 283 284 284 284 283 283 283 283 283 283 283 284 284 284 284 284 284 284 284 284 284 284 283 283 283 283 282 281 280 279 279 278 278 277 277 277 276 276 276 275 275 274 274 274 274 273
276 275 275 275 274 274 274 274 273 273 273 272 272 272 272 272 271 271 271 271 271 271 272 272 273 274 274 275 276 277 277 278 278 279 280 280 281 282 282 282 283 283 283 283 282 282 282 282 282 283 283 283 283 284 284 283 283 283 283 282 282 282 281 281 280 280 279 279 278 278 277 277 277 276 276 276 275 275 275 274 274 274 274 274 273
275 275 274 274 274 274 273 273 273 273 272 272 272 272 272 271 271 271 270 270 270 271 271 272 273 273 274 275 275 276 277 277 278 278 279 280 280 281 281 282 282 282 282 281 281 281 281 281 281 282 282 282 283 282 282 282 282 282 281 281 281 280 280 279 279 279 278 278 277 277 277 276 276 276 275 275 275 274 274 274 274 274 274 273 273
274 274 274 274 274 274 273 273 273 273 272 272 272 272 271 271 271 270 270 270 270 271 271 272 273 273 274 274 275 276 276 277 277 278 279 279 279 280 280 280 280 280 280 280 280 280 280 280 280 281 281 281 281 281 281 281 281 280 280 280 279 279 279 278 278 278 277 277 276 276 276 276 275 275 275 275 275 274 274 274 274 273 273 273 273
274 274 274 274 274 273 273 273 273 273 272 272 271 271 271 271 271 270 270 269 269 270 271 271 272 272 273 274 274 275 276 276 276 277 277 278 278 278 279 279 279 279 279 279 279 279 279 279 279 279 280 280 280 280 280 279 279 279 278 278 278 278 278 277 277 277 276 276 276 276 275 275 275 275 275 275 274 274 274 273 273 273 273 272 272
Wind_Speed
3 3 4 4 5 5 6 6 7 7 8 9 10 11 12 13 14 15 16 17 18 18 19 19 19 20 19 19 19 19 19 20 20 22 23 24 25 26 27 28 30 32 33 34 34 35 38 39 40 40 40 42 43 43 44 44 44 46 45 46 47 46 45 44 49 58 60 54 51 52 51 49 49 48 46 44 41 41 41 40 40 39 38 35 34
2 2 3 3 4 5 5 7 7 8 9 10 11 12 12 13 14 14 15 16 17 18 19 20 20 21 21 21 22 22 22 22 23 24 24 25 26 27 28 29 31 32 33 35 35 35 37 39 40 40 39 41 43 42 43 43 43 45 46 47 49 48 45 44 47 52 57 55 51 51 52 51 50 48 46 44 43 42 41 40 40 39 37 33 34
2 2 2 2 4 5 6 7 8 9 10 11 12 12 13 14 14 15 16 16 17 18 19 19 20 21 21 22 22 23 23 24 25 26 27 27 29 29 30 31 32 34 35 36 36 37 38 40 40 40 40 41 43 43 42 42 43 44 46 47 48 48 45 43 45 50 55 56 52 51 52 52 50 48 46 44 43 42 41 40 39 38 35 32 34
1 1 2 4 5 6 7 8 9 10 11 12 13 14 15 16 16 17 17 18 19 19 20 21 21 22 22 22 23 23 24 24 25 26 27 28 30 31 31 33 34 35 36 37 38 38 39 41 41 40 41 42 43 43 42 42 43 43 44 44 44 45 44 42 44 47 50 54 55 53 52 51 49 47 46 44 43 42 41 39 38 37 34 32 34
1 2 3 5 6 7 8 9 10 11 13 14 15 16 17 18 19 20 20 20 21 21 21 22 23 23 23 24 24 25 25 26 26 27 28 28 30 31 32 34 35 36 37 38 39 40 40 42 42 41 41 43 44 44 43 42 42 42 43 43 42 41 42 43 43 44 47 52 54 51 49 48 47 47 47 45 43 42 40 39 37 35 33 32 33
1 2 3 5 6 7 9 10 11 12 14 15 16 17 18 19 20 21 22 22 23 23 23 24 25 25 25 26 26 27 27 28 28 29 30 30 31 32 33 34 35 36 38 39 39 40 41 42 43 42 43 44 45 44 43 42 41 41 42 41 40 39 41 43 43 43 46 49 49 46 46 48 49 49 48 45 43 42 40 38 36 35 33 33 33
1 2 4 5 7 8 10 11 13 14 15 16 17 18 19 20 20 21 22 23 24 24 25 25 26 27 28 28 29 29 30 30 31 31 32 33 33 35 35 36 37 38 38 39 39 40 42 42 43 44 44 44 45 45 43 42 40 41 40 39 38 39 40 42 43 45 45 44 44 45 47 49 49 49 49 45 42 40 39 37 36 35 34 33 33
2 3 5 6 8 9 10 12 13 14 16 17 18 19 20 21 22 22 23 24 25 26 27 28 28 29 30 30 31 32 33 33 34 34 35 35 36 37 38 38 39 39 40 40 40 40 40 41 42 43 44 45 45 45 43 41 39 40 40 38 37 39 40 42 45 46 43 41 42 44 45 48 49 48 47 44 42 42 41 39 37 36 35 33 31
3 4 5 7 8 10 11 12 14 15 16 17 18 19 20 21 23 23 24 25 26 28 29 30 31 31 32 32 33 34 35 36 37 38 39 39 40 40 41 41 41 42 42 42 41 40 40 40 40 41 43 44 45 45 43 40 38 38 39 37 37 40 41 42 46 45 41 41 44 45 46 49 50 49 48 47 46 45 42 39 36 35 34 32 31
4 6 7 9 10 11 13 14 15 16 18 19 20 21 22 23 24 25 26 27 28 30 31 32 33 34 35 35 36 36 37 38 39 40 41 42 43 44 45 45 44 44 45 45 44 43 41 40 40 40 41 42 44 45 45 42 39 38 39 37 37 40 41 43 45 43 40 43 47 46 46 49 50 50 49 48 46 43 40 39 37 34 32 32 33
7 8 10 11 13 14 15 17 18 20 21 22 23 24 26 27 28 29 30 31 32 32 34 34 35 36 37 38 39 39 39 40 41 42 43 43 45 46 48 49 48 48 47 47 47 46 44 43 42 41 41 42 43 44 44 43 40 39 38 37 36 38 41 44 45 42 40 43 46 46 46 48 48 48 48 45 43 42 41 39 38 36 35 35 37
8 10 11 13 15 16 18 19 21 22 23 25 26 27 29 30 31 32 33 34 34 35 36 37 37 38 39 40 41 41 41 42 42 43 44 45 45 47 49 50 51 51 51 50 50 49 47 46 44 43 42 42 42 43 43 43 41 38 37 37 37 37 39 42 43 41 39 43 46 47 47 46 46 46 46 44 42 41 40 39 38 38 37 38 40
10 11 13 14 16 17 18 19 21 22 24 26 27 28 30 31 32 33 34 35 35 36 37 38 38 39 40 41 42 42 42 43 43 44 45 45 46 47 48 50 51 52 52 52 52 51 49 48 47 46 44 42 42 42 42 41 39 37 37 37 37 38 39 41 42 40 41 45 47 48 47 45 44 44 43 41 40 40 40 40 39 38 37 38 40
10 12 13 15 16 18 20 21 23 25 26 28 29 30 31 32 33 34 35 35 36 37 37 38 39 40 41 42 43 44 44 44 44 45 45 46 47 47 48 49 50 51 52 52 52 52 51 49 49 49 47 44 43 41 39 38 36 36 37 37 38 39 39 40 40 40 43 45 46 47 45 43 43 43 40 39 39 39 39 39 38 37 37 38 40
12 13 15 17 19 21 23 25 26 28 29 30 31 32 33 34 34 35 36 36 37 38 38 39 40 41 42 44 45 46 46 46 45 45 46 47 48 49 49 50 51 52 52 51 51 51 50 49 49 49 48 46 43 39 36 35 34 35 37 38 39 39 39 40 40 41 42 42 43 43 41 41 42 42 40 38 37 35 34 35 34 35 38 38 37
14 16 18 21 23 25 27 29 30 31 32 32 33 34 34 35 35 36 37 38 38 39 40 41 42 43 44 46 48 49 49 48 47 46 46 47 48 49 50 51 53 53 53 52 51 50 49 47 47 47 47 46 43 38 34 33 34 35 37 39 39 39 40 41 40 40 40 40 39 38 37 39 40 41 38 35 32 31 32 32 32 35 38 37 35
17 19 22 24 26 27 29 31 32 32 33 34 34 35 36 36 37 38 39 40 40 41 41 42 43 44 45 46 48 50 50 49 48 47 46 46 47 49 50 52 53 54 54 54 52 50 48 46 45 45 45 44 40 36 32 31 33 36 38 39 39 40 41 41 39 38 38 38 37 35 34 36 37 37 34 29 27 30 33 35 36 37 38 38 36
19 21 23 25 26 28 29 31 32 33 34 34 35 36 36 37 38 38 39 41 41 42 43 43 43 44 45 46 47 49 50 49 49 48 47 46 46 48 49 51 53 54 54 54 52 50 49 46 43 42 41 40 37 33 30 30 33 36 38 39 41 42 41 40 39 38 37 36 35 34 33 32 31 31 30 26 26 29 31 33 36 38 39 39 38
21 22 24 25 26 27 28 29 31 32 33 34 35 35 36 37 37 38 39 40 41 42 43 44 45 45 45 45 46 48 49 49 48 48 47 45 45 46 48 50 52 53 53 53 52 51 49 47 44 41 39 37 34 31 31 31 34 36 37 38 40 41 40 39 38 37 35 33 31 31 31 29 27 27 26 24 24 25 27 30 32 34 37 39 38
22 22 23 24 25 25 26 28 29 31 32 34 34 35 36 37 38 39 40 41 42 43 44 45 46 46 46 46 46 46 47 48 47 47 46 45 44 45 46 48 49 50 51 51 51 51 49 47 45 41 38 35 32 31 32 32 34 36 37 37 39 39 37 36 35 34 32 29 27 27 27 26 25 24 22 22 23 25 28 29 29 29 32 35 35
22 22 23 23 24 25 26 27 29 30 32 34 35 36 36 38 40 41 42 43 44 45 46 46 47 48 48 48 47 46 46 47 47 46 46 44 43 43 45 46 46 47 48 49 49 49 48 46 44 40 38 36 33 32 33 34 34 36 36 37 37 34 33 32 30 29 27 24 23 23 23 23 23 22 22 24 26 29 32 31 29 29 29 29 31
21 22 22 23 24 26 27 28 30 31 33 34 36 37 38 39 41 42 43 45 46 47 47 48 49 50 51 50 49 48 46 46 47 46 45 44 43 42 43 44 44 43 45 48 48 47 46 45 42 39 37 36 35 35 35 35 35 35 35 35 33 30 29 28 27 26 24 21 21 22 23 24 25 25 27 29 30 32 33 31 30 30 28 28 30
21 22 24 25 26 28 29 30 31 32 33 35 36 37 38 39 40 42 43 45 46 47 48 48 49 51 52 52 51 50 48 47 47 46 45 43 43 42 42 42 42 41 42 45 46 45 44 43 41 39 38 38 38 37 36 35 34 34 33 30 28 27 27 26 25 24 23 21 22 24 24 25 26 27 28 29 30 31 31 29 28 27 26 27 28
23 24 25 27 28 29 30 30 31 32 33 34 35 36 38 39 40 41 42 44 45 47 47 48 49 51 53 53 52 51 50 49 48 47 45 42 42 42 41 41 41 40 40 43 44 44 43 42 40 39 39 39 38 36 35 34 33 32 29 26 25 26 27 26 24 23 22 23 25 26 26 26 26 26 27 28 29 29 28 27 26 26 25 26 26
25 26 27 28 29 30 30 31 32 33 34 35 36 37 39 40 41 42 43 43 45 46 46 47 48 50 51 53 53 52 51 51 50 48 45 42 41 41 41 41 40 39 40 41 42 42 41 41 40 40 40 39 36 33 33 32 30 29 26 23 23 26 28 25 22 23 24 26 27 28 27 26 25 25 26 27 28 28 27 27 27 26 25 25 24
26 27 28 29 29 30 32 33 34 35 36 37 38 39 40 42 42 43 44 44 45 46 47 47 48 49 50 51 52 52 52 51 51 49 45 41 40 41 41 42 42 41 41 41 41 40 40 39 39 39 39 37 34 32 32 30 28 26 23 21 22 26 26 23 21 24 26 27 28 28 27 27 26 27 27 28 29 29 28 28 28 26 24 24 23
27 28 29 30 31 33 34 35 37 38 38 39 40 40 41 42 44 45 45 46 46 47 47 48 48 49 50 51 51 51 51 51 50 48 44 40 39 41 42 43 43 43 42 41 40 39 39 38 38 37 36 35 33 31 29 28 26 23 20 20 22 23 22 21 22 24 27 27 27 27 28 28 28 29 30 30 29 27 25 24 25 25 24 23 22
28 29 31 32 34 35 36 37 39 40 41 41 42 43 43 44 45 46 46 47 48 48 48 48 49 48 49 49 50 50 51 51 49 45 41 38 39 41 42 43 43 42 42 40 39 38 38 37 36 35 33 32 31 29 26 25 22 20 18 20 21 20 20 21 23 25 27 26 26 28 30 30 29 30 29 27 24 23 22 21 21 23 23 21 20
29 31 32 34 35 37 38 39 40 42 43 44 44 45 45 45 47 47 47 46 47 48 48 48 49 48 47 47 48 48 49 50 48 42 38 37 38 39 41 42 42 41 40 37 34 34 35 35 33 31 30 28 27 25 23 21 18 18 18 20 21 20 21 23 25 27 27 26 27 29 30 29 28 27 25 22 21 22 22 21 20 20 20 18 17
31 32 34 36 37 38 40 41 42 44 45 46 47 48 47 47 48 49 49 48 48 48 48 48 49 47 46 46 46 45 45 47 46 42 39 39 39 39 40 41 39 39 37 33 29 30 32 32 30 28 26 25 24 22 20 18 17 18 20 21 21 21 22 24 25 26 26 26 28 29 27 26 24 23 22 23 24 24 24 22 20 19 18 17 17
32 34 35 37 38 40 41 42 44 45 46 47 48 50 51 51 51 51 51 51 51 50 49 49 48 46 44 44 44 43 43 43 42 40 39 39 40 41 41 39 38 36 33 28 26 28 29 28 27 25 24 24 22 20 18 17 17 20 22 23 22 22 23 24 26 26 25 26 27 25 23 22 22 22 23 24 25 25 24 22 20 18 17 16 16
33 35 36 37 39 40 42 43 44 46 47 48 49 50 52 55 56 56 55 53 53 53 52 51 49 46 44 43 41 41 41 40 38 38 39 39 41 42 41 38 36 33 29 25 25 26 27 26 25 24 23 22 21 19 17 17 19 21 24 23 22 22 22 23 24 25 24 24 23 21 20 20 20 21 24 24 23 23 22 21 19 18 18 17 16
34 35 37 38 39 41 42 44 45 46 47 48 49 50 51 53 55 57 58 57 56 55 54 52 51 49 46 43 39 38 38 38 37 37 38 38 39 40 39 37 33 29 25 23 24 25 25 25 24 23 22 21 20 18 17 17 20 22 23 22 21 21 22 23 24 24 23 22 20 19 19 19 18 20 23 22 20 20 19 18 19 19 19 19 17
33 35 36 38 40 41 43 44 45 46 46 47 48 49 50 50 51 54 56 58 58 58 56 54 51 50 49 46 41 38 37 38 38 37 37 36 36 36 36 34 30 25 22 22 23 23 24 24 23 22 21 19 18 17 16 18 21 23 23 22 20 20 22 23 24 23 22 21 19 18 17 16 17 19 20 20 19 18 17 18 19 19 19 18 16
34 35 36 38 39 41 41 42 44 45 46 47 48 48 49 50 50 51 52 53 55 57 58 56 53 50 48 46 43 39 38 38 38 36 35 35 34 32 31 30 27 23 22 23 23 24 24 23 21 21 20 18 17 17 16 18 21 22 22 20 20 20 22 24 24 23 21 20 18 16 15 15 16 17 18 18 19 19 19 20 19 19 18 16 15
35 36 37 38 39 40 42 43 44 44 45 46 47 48 49 49 49 50 50 51 51 53 55 56 55 52 48 45 42 39 38 39 38 35 33 33 31 29 28 26 24 23 24 25 24 24 23 21 20 19 17 15 16 17 16 17 19 20 19 19 19 20 22 24 25 23 21 19 16 15 14 13 14 16 17 18 18 19 19 20 19 18 16 15 14
35 36 37 38 39 41 42 44 44 45 45 46 46 47 48 48 48 48 48 49 49 49 51 53 53 52 50 45 42 40 40 40 38 34 31 30 29 27 26 25 23 24 26 25 23 21 20 18 18 16 14 13 15 16 16 16 17 18 18 19 20 21 23 25 23 21 19 17 15 13 12 11 12 15 16 17 19 19 19 19 18 17 16 14 13
34 35 36 37 39 41 43 44 45 45 46 46 46 46 47 47 47 47 47 47 47 47 48 48 48 49 48 46 43 42 42 41 38 34 30 28 26 24 24 23 24 25 26 23 21 19 17 16 15 13 11 11 13 15 15 14 16 17 18 18 20 22 24 24 21 18 17 15 12 11 10 9 11 14 15 17 19 19 19 18 17 16 14 13 11
34 35 36 38 39 41 42 43 44 45 46 46 46 46 46 47 46 46 46 46 46 46 45 45 46 46 47 46 44 43 41 39 37 34 31 27 23 21 22 23 24 24 23 21 19 16 15 13 12 10 8 9 11 13 14 13 14 15 16 18 21 23 23 21 18 16 14 12 10 9 8 9 11 14 16 17 18 17 17 16 15 13 11 10 10
34 35 37 37 39 40 41 42 43 44 44 45 45 45 45 45 45 45 44 44 44 44 43 44 45 46 45 44 42 39 37 36 36 34 32 29 24 21 21 23 23 22 20 18 16 13 12 11 10 8 7 7 9 12 12 11 12 14 16 19 20 20 18 17 15 13 11 9 8 7 7 9 11 14 16 18 17 16 15 14 12 11 11 11 11
34 35 36 37 37 39 40 40 41 42 42 43 43 44 44 44 44 43 43 43 43 43 43 44 45 45 43 42 38 34 32 33 35 34 32 29 24 21 21 22 21 19 17 15 13 11 11 10 9 8 7 8 9 10 11 11 12 14 17 18 18 16 15 14 12 11 9 8 7 7 7 9 12 14 15 16 16 15 14 13 12 12 12 12 11
33 34 34 35 36 37 37 38 39 40 40 41 42 42 42 43 42 42 41 41 41 42 43 44 45 44 43 41 36 32 30 31 32 31 29 26 23 20 20 21 19 16 14 13 12 12 11 10 9 8 9 10 11 11 10 11 13 15 16 17 15 14 13 11 10 9 8 7 7 7 8 10 12 14 14 14 14 13 12 12 12 12 12 11 11
30 31 32 32 33 34 35 36 37 38 39 40 40 41 41 41 40 40 39 40 40 41 42 44 44 43 43 40 36 31 29 28 28 27 25 23 21 20 20 19 18 16 14 13 12 11 10 9 9 9 9 10 12 13 12 12 13 14 15 14 13 12 11 10 9 8 7 7 8 9 10 12 13 13 13 13 12 12 12 12 12 12 12 11 11
28 29 30 30 31 32 33 34 35 36 37 38 39 39 39 38 38 37 37 38 39 39 40 41 42 41 41 39 35 31 28 26 25 24 22 21 21 20 20 19 18 17 17 16 14 12 11 10 9 8 8 9 10 11 12 13 13 13 13 12 12 11 10 9 8 7 7 8 9 10 11 12 12 12 12 12 12 12 12 12 12 12 12 12 12
26 27 28 28 29 30 30 31 32 34 35 36 37 38 37 37 36 35 35 35 36 37 37 38 37 37 37 35 32 29 27 25 24 23 22 22 22 20 20 19 18 17 18 17 15 13 12 12 11 11 10 10 10 10 10 11 11 11 11 11 10 10 9 8 8 8 8 9 9 10 11 11 12 12 12 12 12 12 12 12 12 12 12 12 12
24 25 26 27 27 28 29 30 31 32 33 35 36 37 37 36 35 34 33 32 33 34 35 35 33 32 31 30 29 27 25 24 23 22 22 22 21 20 19 20 18 16 16 17 16 15 14 13 13 13 13 13 12 11 11 11 11 11 12 11 11 10 10 9 9 9 9 9 10 10 11 11 12 12 12 12 12 13 13 13 13 13 12 12 11
23 23 24 25 26 27 27 28 30 31 32 33 34 35 36 36 35 34 32 31 31 32 32 31 30 29 28 27 26 25 24 22 22 21 21 20 20 18 19 20 19 17 17 17 16 15 15 14 13 14 15 15 14 13 12 12 12 11 11 10 10 9 9 9 10 10 10 10 10 10 11 11 12 12 12 13 13 13 13 13 13 12 12 12 12
21 22 22 23 25 26 27 28 29 30 31 33 33 34 35 36 35 34 32 31 31 30 30 28 28 27 26 25 25 24 22 21 20 19 19 18 17 16 17 18 17 16 16 16 15 15 16 14 12 12 12 13 13 12 11 11 11 10 10 9 9 9 9 9 9 10 10 10 10 11 11 12 12 13 13 13 13 13 13 12 12 12 12 13 13
20 21 22 23 23 25 26 27 28 29 30 32 33 33 34 35 35 33 32 31 30 29 28 27 26 25 25 24 23 22 20 19 18 17 17 16 14 14 15 15 15 14 14 13 14 14 14 11 9 9 9 10 10 10 10 10 10 10 9 9 9 9 9 10 10 10 11 11 11 12 13 13 13 13 13 13 13 12 12 12 12 12 12 12 13
19 20 21 22 23 24 25 25 26 27 28 29 31 32 33 33 34 33 32 31 30 29 28 26 25 24 23 22 21 19 17 16 15 14 12 11 11 12 12 12 12 12 11 12 13 12 10 9 9 9 9 9 10 10 9 9 9 9 9 9 10 10 10 11 11 12 12 12 12 13 13 13 13 12 12 12 12 12 12 12 12 12 12 13 13
18 19 20 21 22 23 24 24 25 26 26 27 29 30 31 31 32 32 32 31 29 28 27 25 24 23 21 20 18 15 13 11 10 8 6 6 7 8 8 9 9 9 10 11 11 9 9 9 9 9 9 9 9 9 9 9 9 9 9 10 10 10 11 11 11 11 12 12 12 12 12 12 12 11 11 11 11 12 12 12 12 13 13 13 14
Wind_Direction
58 46 35 32 24 17 10 2 357 350 346 343 339 336 334 331 329 328 326 325 325 324 324 324 323 322 322 321 320 319 317 315 313 310 308 307 305 303 301 297 294 294 292 290 288 285 284 282 282 281 279 278 278 277 277 276 275 274 271 269 268 265 264 264 264 270 277 277 276 278 280 280 280 281 282 283 282 281 281 280 278 275 273 268 261
99 76 50 36 19 9 3 357 354 352 349 347 343 340 337 335 335 333 331 330 329 327 326 325 323 323 321 319 317 315 313 311 310 308 307 306 305 303 302 300 299 298 296 295 295 292 290 288 287 286 283 281 280 278 277 276 274 272 269 266 267 268 268 269 267 269 275 279 278 279 280 280 279 280 281 282 282 282 279 278 276 273 271 265 258
127 89 44 21 7 2 0 355 354 352 349 346 345 343 341 340 340 338 338 337 336 335 333 332 330 328 327 325 322 320 318 315 313 311 309 307 305 304 303 302 300 300 299 298 298 297 295 293 292 291 288 285 283 280 278 277 274 271 270 268 267 268 268 269 268 267 271 276 277 278 280 279 277 279 281 281 280 279 276 274 273 269 265 260 254
116 58 14 5 2 359 356 354 351 348 345 343 343 342 340 340 339 338 337 336 335 335 333 332 331 330 329 328 326 325 323 321 319 316 313 311 308 306 305 304 302 302 302 301 301 300 298 296 295 295 292 288 287 285 281 278 275 273 273 272 269 269 269 269 268 268 269 273 276 278 279 279 277 277 278 278 276 275 273 270 268 264 259 253 249
51 7 358 356 355 352 349 347 345 343 342 342 341 340 339 338 337 337 336 336 335 335 334 332 331 330 330 329 328 327 326 324 322 320 317 315 312 310 309 307 305 304 303 302 302 302 300 299 299 297 294 291 290 288 285 281 278 275 275 274 273 272 271 270 270 268 268 272 276 278 278 276 275 275 276 275 274 272 269 266 262 258 253 248 246
0 346 347 344 341 340 338 337 338 338 339 338 337 336 336 335 334 334 333 334 333 333 334 333 332 332 332 331 330 329 328 327 325 322 321 319 317 315 313 311 309 307 306 304 303 303 302 301 301 299 296 294 292 291 288 284 281 278 277 276 275 274 272 272 270 267 270 274 275 274 274 274 273 274 274 273 271 269 266 262 258 255 252 248 242
324 327 330 332 330 330 331 332 333 333 333 333 332 331 331 330 330 330 329 330 330 330 331 331 332 332 332 332 331 330 330 330 328 326 325 323 320 318 316 314 312 310 309 308 306 305 304 303 302 301 299 296 294 292 289 286 283 280 279 277 276 275 273 273 270 269 274 277 272 269 272 273 272 271 271 270 267 264 261 258 255 252 247 241 233
305 317 322 325 326 327 328 328 329 328 327 326 325 325 325 325 325 325 325 325 326 326 327 328 328 328 329 329 329 329 330 330 329 328 327 326 323 321 319 317 315 313 311 310 308 307 306 304 303 301 300 298 296 293 289 285 283 281 280 278 276 275 274 273 270 269 276 278 272 270 270 270 269 269 267 264 260 258 259 257 253 249 243 233 226
310 318 322 325 327 327 328 327 326 325 324 323 322 321 321 321 321 321 322 322 323 323 323 324 324 324 324 325 325 326 326 327 327 327 327 326 324 322 321 319 318 316 314 313 311 309 306 304 302 300 299 297 295 293 290 285 281 279 278 277 275 274 274 274 272 271 276 279 275 271 268 266 266 264 261 261 261 261 260 255 248 244 239 230 221
322 326 329 331 331 330 329 327 326 325 324 323 323 322 322 321 321 321 321 321 321 321 321 321 321 321 321 321 320 321 321 322 322 322 323 323 322 321 319 318 318 317 315 314 313 311 309 306 303 300 296 294 293 292 290 287 281 277 275 274 273 273 274 274 273 272 276 280 277 271 267 265 264 263 263 264 264 262 258 251 242 234 228 219 211
326 329 331 330 330 329 328 327 326 326 325 325 324 324 323 322 322 321 321 321 320 320 320 319 319 319 319 318 318 317 317 318 317 317 317 317 317 317 316 315 316 315 315 314 314 313 312 309 306 303 298 295 292 290 289 287 283 278 275 272 269 269 271 272 271 272 277 281 277 271 266 264 265 265 264 263 261 259 254 248 238 228 221 215 208
328 328 329 328 326 326 326 326 326 324 324 324 323 323 323 322 321 320 319 319 319 318 318 317 317 317 316 315 315 315 315 315 315 314 313 313 313 312 311 311 311 312 312 313 312 313 313 311 309 305 301 297 294 290 288 286 284 280 276 272 268 266 267 269 268 269 275 280 277 271 267 265 264 264 263 263 261 256 250 243 236 230 225 219 213
327 326 326 325 324 324 323 323 323 322 321 321 320 320 319 318 318 317 316 316 315 315 315 314 314 314 313 312 312 311 312 313 313 313 312 312 311 310 308 308 307 307 308 310 310 311 311 310 309 306 303 300 296 292 290 287 286 283 278 274 270 266 267 267 264 266 275 279 275 271 268 266 264 265 268 267 262 254 245 238 233 229 226 221 218
326 325 325 324 323 323 322 322 321 320 319 318 317 316 316 315 315 314 313 312 312 312 311 311 311 310 310 310 309 309 310 311 312 312 312 311 311 310 309 308 307 306 306 307 308 309 310 309 308 307 306 303 300 297 294 290 287 284 279 275 271 269 268 266 264 269 276 276 272 270 269 267 266 267 268 266 261 256 251 244 235 227 221 218 216
326 325 324 323 323 322 321 320 319 317 316 315 314 314 313 313 313 312 311 311 311 310 310 309 309 309 309 309 308 307 308 310 312 312 312 312 311 311 310 309 308 307 306 307 307 308 308 308 306 306 305 303 301 298 296 293 289 284 280 277 274 272 271 270 271 275 276 274 272 272 272 269 265 264 263 262 261 259 255 250 238 223 213 210 211
323 321 321 321 321 320 319 317 316 314 314 313 312 312 312 312 312 311 310 310 309 309 309 308 308 308 308 308 308 307 307 309 310 311 312 312 312 311 311 310 309 308 307 308 308 307 307 306 305 305 303 301 300 298 295 293 289 284 282 280 277 275 276 277 277 277 275 273 274 274 271 266 262 260 260 261 260 251 240 230 221 211 205 203 204
317 317 318 318 317 316 315 314 313 312 312 312 311 312 311 312 312 311 310 310 309 309 309 308 309 309 309 309 309 308 307 308 310 309 310 312 312 311 311 310 309 309 308 309 308 307 306 305 305 304 303 301 301 299 295 290 287 284 283 282 280 278 280 282 281 279 276 275 275 271 264 259 258 258 257 256 253 243 229 217 212 208 204 199 197
314 315 315 314 313 313 312 311 311 311 311 311 311 311 311 311 311 311 311 310 309 309 309 309 309 309 309 309 309 308 307 308 309 308 308 310 311 311 311 311 310 309 309 309 308 307 305 304 304 304 302 302 302 298 293 288 285 283 282 283 282 281 281 284 285 284 281 277 272 265 258 253 251 251 249 245 243 238 229 221 215 209 203 199 196
312 311 310 309 310 310 310 310 311 311 311 311 311 311 311 310 310 310 310 309 308 308 308 307 307 307 307 307 307 307 307 307 307 306 306 307 309 310 311 310 310 310 310 309 308 306 305 304 304 304 302 302 300 295 290 286 284 283 282 283 282 282 284 287 287 286 283 277 270 263 256 247 239 237 238 238 236 233 229 226 221 211 203 200 198
307 306 307 308 309 310 310 311 311 311 311 311 310 311 310 310 309 308 307 306 306 305 305 305 305 304 304 305 305 305 306 306 306 305 304 304 306 308 308 308 308 309 309 307 306 306 305 305 305 305 304 303 299 293 288 285 284 284 284 282 281 283 286 287 286 284 282 276 269 260 249 236 227 227 230 230 227 222 220 220 220 215 208 203 201
305 306 308 309 310 312 312 311 311 311 310 309 308 308 308 307 306 306 305 304 303 302 302 302 302 302 302 302 302 303 305 306 305 304 303 302 303 305 305 305 306 307 306 305 305 305 305 305 305 305 304 304 300 294 288 285 285 284 283 282 283 284 284 283 282 281 277 270 259 247 233 221 217 217 215 212 210 209 209 209 211 212 211 206 202
305 307 309 310 311 312 312 311 311 310 309 309 308 307 307 306 305 305 304 304 303 302 302 302 302 301 300 300 301 301 302 304 303 302 302 301 302 303 303 303 304 304 304 303 304 304 304 305 305 304 303 301 298 293 288 286 286 284 283 282 281 280 277 276 276 273 266 255 241 229 217 211 208 204 202 202 202 201 202 203 204 206 208 207 202
307 309 311 312 313 313 313 313 313 312 311 311 310 310 310 309 308 307 307 306 305 304 304 304 303 302 301 300 300 300 300 301 301 300 300 301 301 302 302 302 303 303 301 301 302 302 302 302 302 302 299 297 294 291 288 287 286 284 282 279 275 272 269 268 267 262 252 238 226 216 208 205 202 198 197 199 198 197 199 200 201 204 204 200 195
311 312 313 314 314 314 315 315 315 315 315 315 314 314 314 314 313 312 311 310 309 308 307 307 305 304 303 301 300 300 300 300 299 298 299 300 301 302 302 301 302 303 301 300 301 301 301 300 299 297 295 293 292 289 287 287 286 283 278 271 265 262 260 260 259 250 237 224 215 209 202 199 199 197 196 195 194 193 193 194 195 194 189 184 182
313 315 315 316 317 317 317 317 317 317 317 317 316 316 316 316 315 315 314 313 311 310 309 308 307 306 305 304 303 302 300 300 299 298 298 300 301 302 301 301 301 302 302 300 300 300 299 297 295 293 291 290 288 287 287 286 285 281 272 262 256 254 253 254 250 237 225 217 212 208 202 198 197 195 193 190 187 185 182 181 181 179 175 176 177
316 317 318 318 318 317 317 316 316 316 316 316 316 316 316 315 314 314 314 313 312 311 310 309 308 306 305 305 305 304 302 301 300 299 299 302 303 303 303 303 303 304 304 302 301 301 298 294 291 290 289 287 285 285 285 285 283 276 263 251 249 249 248 248 241 229 220 216 212 207 201 196 192 188 185 182 179 177 176 174 173 172 174 177 177
317 317 317 316 316 316 316 316 315 316 315 315 315 314 314 314 313 313 313 313 312 311 310 309 307 306 305 305 305 304 303 302 302 301 303 306 307 306 306 305 306 306 305 304 303 302 298 294 291 289 286 285 284 283 284 283 278 267 250 240 243 246 247 248 242 230 222 217 211 204 196 190 184 180 177 175 174 173 175 176 175 173 174 176 176
315 315 315 316 316 316 316 316 316 316 315 316 316 315 315 315 314 313 313 313 312 310 309 308 307 306 305 305 304 304 303 302 303 303 304 306 307 307 306 305 306 305 304 303 302 301 298 294 291 288 286 285 285 285 284 281 270 255 240 235 238 240 240 238 230 222 219 215 207 196 187 181 178 174 172 172 174 173 173 177 179 177 175 176 177
314 315 315 316 317 317 317 317 317 317 317 317 317 317 317 316 315 314 313 313 312 311 309 308 307 307 305 303 303 302 302 302 303 303 303 304 306 305 304 303 304 303 301 300 298 296 295 293 290 288 288 287 287 286 283 273 256 243 236 233 231 229 227 224 219 215 214 209 198 188 181 176 174 172 171 173 176 174 173 176 179 178 177 178 180
315 316 317 317 318 318 319 319 320 320 320 319 318 317 316 316 316 315 314 313 312 312 310 309 308 307 304 302 301 300 299 301 302 301 301 304 306 305 302 301 301 300 298 297 292 287 287 288 287 288 289 289 286 282 273 259 245 237 230 224 222 223 221 219 217 215 211 201 192 184 178 174 173 174 177 179 178 176 175 176 178 179 180 182 185
316 317 318 319 319 320 320 320 320 320 320 320 320 319 317 316 315 315 315 314 313 312 311 309 309 307 304 302 301 300 299 299 300 299 301 303 305 304 301 299 298 298 296 292 284 279 281 284 285 287 288 286 280 272 262 250 241 232 221 214 215 220 220 218 216 212 204 194 186 181 177 176 178 180 182 182 180 178 177 177 179 181 183 187 192
317 318 319 319 320 320 320 320 320 320 321 321 320 319 318 317 316 315 314 314 313 312 311 310 309 308 306 304 302 301 299 298 297 298 299 301 302 301 299 297 296 294 291 283 276 274 277 281 284 286 286 280 272 265 255 244 235 226 216 212 214 218 220 220 215 207 195 183 179 178 178 181 182 182 181 181 180 180 179 180 182 184 185 188 193
318 318 319 320 320 320 320 320 320 320 320 320 319 318 317 316 315 314 313 312 311 311 310 310 309 308 307 305 304 302 299 297 296 296 297 298 298 297 295 294 293 289 282 275 270 270 274 278 281 282 281 275 268 264 255 243 234 224 215 215 217 219 219 216 206 194 182 174 173 175 176 177 178 179 179 179 180 182 183 186 189 190 191 193 195
317 318 319 320 320 320 320 320 320 320 319 319 318 317 316 315 314 313 312 311 310 309 309 309 310 309 308 306 305 303 299 297 296 297 297 296 295 293 293 292 289 281 271 266 266 268 272 276 278 279 279 273 266 262 254 241 230 220 215 216 219 218 214 206 193 181 174 173 172 170 168 170 174 176 178 179 181 186 191 194 195 195 196 197 199
317 318 319 320 319 319 319 319 320 320 320 319 319 317 316 315 313 311 310 310 309 309 308 308 309 309 308 305 304 303 301 300 299 299 297 294 291 290 290 287 282 273 266 264 265 266 268 272 275 278 279 274 263 257 250 236 225 220 217 215 215 214 207 194 182 176 174 172 168 162 162 167 173 177 181 185 187 192 195 197 198 199 200 201 204
318 319 319 319 319 320 321 321 322 322 321 321 320 318 317 316 314 312 310 309 308 308 307 307 308 309 308 306 305 305 304 303 303 301 296 291 289 287 282 277 272 269 267 268 270 268 264 266 273 277 278 272 259 250 243 233 226 222 217 213 212 209 198 184 178 178 177 171 165 162 163 169 176 181 186 190 194 197 199 199 200 202 203 205 207
318 319 320 321 322 323 323 324 324 323 323 322 321 319 318 316 314 312 309 307 306 306 306 307 309 309 308 307 307 306 305 304 304 301 294 289 286 281 273 265 263 265 268 270 271 267 261 264 274 277 274 266 254 244 236 231 226 220 215 213 212 204 190 180 179 179 176 170 165 162 163 171 181 187 189 192 195 197 199 201 203 204 205 208 211
318 320 322 324 325 325 324 324 324 324 324 323 322 321 319 317 315 313 310 308 307 306 306 307 307 307 306 306 306 306 306 305 304 302 297 292 286 276 265 257 256 262 267 269 269 264 260 266 274 273 264 257 249 239 233 230 226 221 217 211 201 190 184 183 184 181 175 170 166 161 163 175 185 190 193 195 197 199 201 204 206 207 208 211 214
320 323 325 326 326 325 325 325 325 325 325 325 324 323 321 318 317 314 312 310 308 307 307 307 306 305 306 306 306 307 307 305 303 301 299 295 287 273 261 256 257 262 267 268 264 260 261 268 269 261 251 247 240 233 231 228 223 218 211 197 185 181 183 187 186 180 175 171 166 165 172 183 188 194 196 197 199 202 204 205 206 208 210 213 216
324 325 326 326 327 326 326 327 327 327 327 326 325 324 322 319 317 315 313 311 310 309 309 308 306 306 306 306 306 308 307 301 297 297 297 295 288 275 264 260 261 265 267 265 261 259 262 263 255 242 234 229 225 225 226 221 211 204 196 186 182 184 188 189 185 182 179 175 173 178 187 193 195 197 197 195 196 199 201 202 204 207 210 215 220
326 326 327 327 328 328 329 329 329 329 329 328 327 326 324 322 319 317 315 314 313 313 312 309 307 307 307 307 308 309 304 296 294 295 293 290 286 278 269 264 264 265 262 258 256 258 258 251 238 224 213 206 208 214 215 207 199 194 188 184 184 188 191 190 189 188 186 185 189 196 200 200 199 198 197 195 196 197 200 205 209 211 215 220 224
326 327 328 329 330 331 331 331 331 331 331 331 330 329 327 325 322 320 318 317 316 315 313 311 310 310 309 308 309 309 302 295 293 293 289 285 282 276 268 264 262 258 252 248 250 253 248 237 225 216 205 196 196 201 202 200 196 193 189 188 190 193 195 197 198 197 195 197 203 206 203 199 194 192 193 196 199 202 207 212 214 217 221 224 225
327 329 330 331 332 333 333 332 333 333 334 334 333 332 331 328 325 323 321 318 317 317 315 313 313 312 310 308 309 307 301 296 295 293 287 283 281 275 265 260 257 250 243 246 250 246 235 224 216 210 200 193 191 192 193 195 196 195 195 198 199 201 204 207 209 212 214 215 213 207 199 194 190 190 193 198 204 209 213 216 218 221 224 224 224
329 330 331 332 333 334 334 335 335 335 336 336 335 334 334 331 327 325 322 319 318 316 315 313 312 311 309 308 308 306 302 299 298 296 290 286 285 277 263 255 254 250 245 246 250 247 240 232 224 215 205 199 195 192 192 194 196 199 203 207 212 215 219 221 224 226 225 220 212 203 196 192 191 194 199 204 210 214 217 219 221 222 223 224 225
331 332 332 333 334 335 336 337 338 337 337 337 337 337 337 334 330 326 323 320 319 318 317 315 313 310 309 308 308 306 304 302 301 298 292 288 287 280 262 251 253 254 248 243 245 250 251 246 240 234 228 221 215 212 211 210 212 215 218 220 223 226 226 224 222 217 211 205 199 195 192 192 194 199 204 209 214 217 219 221 222 223 224 225 226
333 334 334 334 335 336 337 338 339 339 339 339 339 340 340 338 335 331 328 325 325 323 320 318 316 313 312 312 309 307 306 305 303 299 292 288 287 280 260 247 248 253 248 241 244 253 258 255 247 242 238 233 230 229 230 231 233 234 234 233 231 227 221 216 211 206 200 195 192 192 194 196 199 204 209 213 215 218 219 220 222 222 223 225 227
334 335 335 336 336 337 339 340 340 340 340 341 342 342 342 342 341 338 335 333 332 329 325 322 320 318 317 316 314 311 310 308 305 300 294 291 288 277 256 243 241 244 244 241 245 254 260 261 254 244 237 234 231 230 231 231 230 228 226 223 220 216 211 207 201 196 193 191 192 194 200 205 208 212 215 217 218 220 220 221 222 223 225 228 231
335 335 336 338 339 339 340 341 342 342 342 342 343 344 344 345 345 344 341 339 338 336 332 328 325 322 320 320 318 315 314 311 306 301 297 294 286 268 248 237 234 236 238 240 247 256 263 264 255 238 227 223 220 218 216 213 209 205 202 199 196 194 192 191 192 192 194 196 198 202 207 212 214 216 217 218 219 219 220 222 224 226 230 232 235
335 336 338 339 340 341 341 341 342 343 343 343 344 344 345 346 347 347 346 344 343 342 339 335 332 329 327 325 324 321 318 314 309 303 299 291 274 251 236 231 231 234 237 243 253 262 264 255 232 208 199 198 197 197 197 195 193 193 192 191 191 191 191 191 193 196 200 203 207 209 211 213 214 215 216 217 218 220 222 225 227 230 233 236 239
335 336 338 339 340 341 341 341 341 342 343 344 344 345 345 346 347 348 349 349 348 348 347 343 340 338 335 333 330 327 324 320 314 307 298 280 254 236 231 232 234 237 245 254 261 260 247 220 196 186 185 185 186 188 189 190 192 193 192 192 193 195 196 197 200 201 203 206 208 210 213 215 216 217 218 219 221 224 225 227 230 233 237 240 243
332 334 336 336 337 338 338 338 339 340 341 344 345 345 345 346 347 348 349 350 351 352 353 353 351 350 348 346 344 341 339 337 330 317 296 261 239 233 235 239 244 253 262 264 257 241 218 200 190 187 186 184 184 186 187 187 190 191 191 193 195 196 197 200 202 204 207 209 211 213 215 217 219 222 224 226 227 228 229 231 234 237 238 240 242